This is the latest recevied weather packets stored in our database for station/object TF3VP-10. If no packets are shown the sender has not sent any weather packets the latest 10 day(s).
| Time | Temp. | Humidity | Pressure | Rain* | Wind** | Luminosity | Snow |
|---|---|---|---|---|---|---|---|
| 1777757747 | 5.56° C | 63% | 1026.6 hPa | - | - | - | - |
| 1777756847 | 5.56° C | 64% | 1026.6 hPa | - | - | - | - |
| 1777755947 | 6.11° C | 64% | 1026.7 hPa | - | - | - | - |
| 1777755047 | 6.67° C | 64% | 1026.6 hPa | - | - | - | - |
| 1777754147 | 6.67° C | 63% | 1026.7 hPa | - | - | - | - |
| 1777753247 | 7.22° C | 62% | 1026.7 hPa | - | - | - | - |
| 1777752347 | 7.22° C | 62% | 1026.8 hPa | - | - | - | - |
| 1777751447 | 7.22° C | 62% | 1026.8 hPa | - | - | - | - |
| 1777750548 | 7.22° C | 61% | 1026.8 hPa | - | - | - | - |
| 1777749648 | 7.22° C | 62% | 1027.1 hPa | - | - | - | - |
| 1777748748 | 7.22° C | 62% | 1027.1 hPa | - | - | - | - |
| 1777747849 | 7.22° C | 62% | 1027.5 hPa | - | - | - | - |
| 1777746947 | 7.78° C | 59% | 1027.6 hPa | - | - | - | - |
| 1777746047 | 8.33° C | 59% | 1027.7 hPa | - | - | - | - |
| 1777745147 | 8.33° C | 57% | 1027.9 hPa | - | - | - | - |
| 1777744247 | 8.33° C | 54% | 1028.2 hPa | - | - | - | - |
| 1777743348 | 7.78° C | 57% | 1028.3 hPa | - | - | - | - |
| 1777742447 | 7.22° C | 54% | 1028 hPa | - | - | - | - |
| 1777741547 | 7.22° C | 59% | 1028.3 hPa | - | - | - | - |
| 1777740647 | 7.22° C | 58% | 1028.4 hPa | - | - | - | - |
| 1777739747 | 7.22° C | 58% | 1028.6 hPa | - | - | - | - |
| 1777738847 | 7.78° C | 58% | 1028.9 hPa | - | - | - | - |
| 1777737947 | 7.78° C | 57% | 1029 hPa | - | - | - | - |
| 1777737048 | 8.33° C | 55% | 1029.1 hPa | - | - | - | - |
| 1777736147 | 8.33° C | 54% | 1029.4 hPa | - | - | - | - |
* Rain since midnight (hover to see other rain measurements)
** Current wind speed in m/s (hover to see current wind gust speed)